DW8219 Weather Reports


Display with metric or nautical units.
time (UTC)temp
F
wind
direction
speed
MPH
gust
MPH
rain 1hr
in
rain 24hr
in
rain mn
in
humidity
%
barometer
mb
20181118223402 42 167 0.0 0.0 0.00 0.00 0.00 67 1023.9
20181118222902 42 167 0.0 1.0 0.00 0.00 0.00 67 1023.9
20181118222402 42 166 0.0 3.0 0.00 0.00 0.00 67 1023.9
20181118221902 42 166 0.0 0.0 0.00 0.00 0.00 66 1023.9
20181118221401 42 167 0.0 0.0 0.00 0.00 0.00 66 1024.0
20181118220902 42 167 0.0 0.0 0.00 0.00 0.00 65 1024.1
20181118220402 42 166 0.0 3.0 0.00 0.00 0.00 65 1024.2
20181118215901 42 167 3.0 5.0 0.00 0.00 0.00 65 1024.2
20181118215402 42 166 0.0 3.0 0.00 0.00 0.00 65 1024.1
20181118214902 42 167 2.0 5.0 0.00 0.00 0.00 65 1024.1
20181118214402 42 167 0.0 0.0 0.00 0.00 0.00 65 1024.2
20181118213902 42 167 3.0 5.0 0.00 0.00 0.00 64 1024.2
20181118213402 42 166 1.0 3.0 0.00 0.00 0.00 64 1024.3
20181118212902 42 166 0.0 3.0 0.00 0.00 0.00 64 1024.2
20181118212402 42 166 1.0 5.0 0.00 0.00 0.00 63 1024.2
20181118211902 42 165 3.0 7.0 0.00 0.00 0.00 61 1024.1
20181118211401 42 166 5.0 8.0 0.00 0.00 0.00 61 1024.1
20181118210901 42 227 1.0 3.0 0.00 0.00 0.00 62 1024.2
20181118210402 42 228 1.0 6.0 0.00 0.00 0.00 63 1024.3
20181118205902 42 163 3.0 6.0 0.00 0.00 0.00 63 1024.2
20181118205402 42 169 2.0 5.0 0.00 0.00 0.00 63 1024.3
20181118204901 42 142 0.0 0.0 0.00 0.00 0.00 62 1024.2
20181118204402 42 143 0.0 2.0 0.00 0.00 0.00 62 1024.4
20181118203901 42 142 1.0 2.0 0.00 0.00 0.00 61 1024.4
20181118203402 42 142 0.0 0.0 0.00 0.00 0.00 62 1024.5
20181118202904 42 142 0.0 0.0 0.00 0.00 0.00 61 1024.5
20181118202409 42 142 0.0 0.0 0.00 0.00 0.00 61 1024.5
20181118201902 42 143 0.0 1.0 0.00 0.00 0.00 63 1024.6
20181118201402 42 143 0.0 1.0 0.00 0.00 0.00 62 1024.6
20181118200905 42 143 0.0 0.0 0.00 0.00 0.00 63 1024.7
20181118200403 42 142 1.0 2.0 0.00 0.00 0.00 62 1024.5
20181118195902 42 142 0.0 2.0 0.00 0.00 0.00 62 1024.5
20181118195402 42 142 0.0 1.0 0.00 0.00 0.00 61 1024.5
20181118194902 42 143 0.0 2.0 0.00 0.00 0.00 61 1024.5
20181118194402 42 142 1.0 3.0 0.00 0.00 0.00 62 1024.5
20181118193902 42 142 0.0 2.0 0.00 0.00 0.00 61 1024.6
20181118193402 42 142 1.0 2.0 0.00 0.00 0.00 61 1024.6
20181118192902 42 142 1.0 2.0 0.00 0.00 0.00 62 1024.7
20181118192402 42 143 0.0 0.0 0.00 0.00 0.00 63 1024.7
20181118191902 42 142 0.0 0.0 0.00 0.00 0.00 62 1024.7
20181118191402 42 142 0.0 1.0 0.00 0.00 0.00 62 1024.7
20181118190902 42 142 0.0 1.0 0.00 0.00 0.00 62 1024.8
20181118190402 42 142 1.0 2.0 0.00 0.00 0.00 62 1024.7
20181118185902 42 142 0.0 1.0 0.00 0.00 0.00 61 1024.8
20181118185403 42 142 1.0 3.0 0.00 0.00 0.00 64 1024.8
20181118184902 42 142 0.0 1.0 0.00 0.00 0.00 62 1024.8
20181118184403 42 142 1.0 3.0 0.00 0.00 0.00 62 1024.9
20181118183902 42 142 0.0 0.0 0.00 0.00 0.00 63 1024.9
20181118183402 42 142 0.0 0.0 0.00 0.00 0.00 62 1025.0
20181118182902 42 142 0.0 0.0 0.00 0.00 0.00 64 1025.1
20181118182403 42 142 0.0 2.0 0.00 0.00 0.00 63 1025.2
20181118181902 41 142 1.0 2.0 0.00 0.00 0.00 64 1025.2
20181118181402 41 57 0.0 1.0 0.00 0.00 0.00 61 1025.2
20181118180902 41 57 0.0 1.0 0.00 0.00 0.00 62 1025.2
20181118180403 41 57 0.0 1.0 0.00 0.00 0.00 63 1025.3
20181118175903 41 57 1.0 2.0 0.00 0.00 0.00 62 1025.4
20181118175403 41 57 1.0 1.0 0.00 0.00 0.00 61 1025.4
20181118174902 41 57 0.0 0.0 0.00 0.00 0.00 61 1025.5
20181118174403 41 57 0.0 1.0 0.00 0.00 0.00 63 1025.5
20181118173902 41 57 0.0 0.0 0.00 0.00 0.00 61 1025.6
20181118173403 41 57 0.0 2.0 0.00 0.00 0.00 63 1025.6
20181118172903 41 57 0.0 1.0 0.00 0.00 0.00 63 1025.7
20181118172403 41 57 0.0 2.0 0.00 0.00 0.00 62 1025.7
20181118171903 41 57 0.0 1.0 0.00 0.00 0.00 62 1025.8
20181118171402 41 57 0.0 3.0 0.00 0.00 0.00 61 1025.9
20181118170903 41 57 0.0 3.0 0.00 0.00 0.00 61 1026.0
20181118170402 41 57 0.0 2.0 0.00 0.00 0.00 61 1026.1
20181118165903 41 56 0.0 2.0 0.00 0.00 0.00 62 1026.2
20181118165403 41 56 0.0 3.0 0.00 0.00 0.00 62 1026.2
20181118164902 41 56 0.0 0.0 0.00 0.00 0.00 62 1026.3
20181118164403 41 56 0.0 0.0 0.00 0.00 0.00 61 1026.4
20181118163902 41 56 1.0 3.0 0.00 0.00 0.00 61 1026.4
20181118163403 41 56 0.0 0.0 0.00 0.00 0.00 60 1026.6
20181118162902 41 56 0.0 2.0 0.00 0.00 0.00 64 1026.6
20181118162402 41 56 0.0 1.0 0.00 0.00 0.00 61 1026.6
20181118161903 41 56 0.0 0.0 0.00 0.00 0.00 61 1026.8
20181118161402 40 56 0.0 0.0 0.00 0.00 0.00 61 1027.0
20181118160903 40 56 0.0 0.0 0.00 0.00 0.00 61 1027.0
20181118160403 40 56 0.0 0.0 0.00 0.00 0.00 63 1027.0
20181118155903 40 56 0.0 0.0 0.00 0.00 0.00 61 1027.1
20181118155402 40 56 2.0 3.0 0.00 0.00 0.00 61 1027.0
20181118154903 40 56 0.0 2.0 0.00 0.00 0.00 61 1027.1
20181118154402 40 56 0.0 1.0 0.00 0.00 0.00 61 1027.3
20181118153903 40 56 0.0 3.0 0.00 0.00 0.00 60 1027.2
20181118153402 40 56 0.0 3.0 0.00 0.00 0.00 60 1027.3
20181118152903 40 56 0.0 3.0 0.00 0.00 0.00 61 1027.2
20181118152403 40 56 0.0 2.0 0.00 0.00 0.00 60 1027.2
20181118151903 40 56 1.0 3.0 0.00 0.00 0.00 60 1027.1
20181118151403 40 56 0.0 1.0 0.00 0.00 0.00 60 1027.2
20181118150903 40 56 2.0 3.0 0.00 0.00 0.00 60 1027.3
20181118150403 40 56 1.0 5.0 0.00 0.00 0.00 61 1027.3
20181118145903 40 55 2.0 5.0 0.00 0.00 0.00 61 1027.4
20181118145403 40 55 0.0 1.0 0.00 0.00 0.00 60 1027.5
20181118144903 40 55 0.0 2.0 0.00 0.00 0.00 60 1027.5
20181118144403 40 55 2.0 3.0 0.00 0.00 0.00 62 1027.5
20181118143903 40 55 2.0 5.0 0.00 0.00 0.00 61 1027.5
20181118143403 40 55 2.0 3.0 0.00 0.00 0.00 61 1027.6
20181118142903 40 53 0.0 3.0 0.00 0.00 0.00 62 1027.6
20181118142403 39 54 1.0 5.0 0.00 0.00 0.00 61 1027.7
20181118141904 40 52 3.0 5.0 0.00 0.00 0.00 61 1027.7
20181118141403 40 50 2.0 6.0 0.00 0.00 0.00 62 1027.8
20181118140903 40 42 2.0 6.0 0.00 0.00 0.00 62 1027.8
20181118140403 39 44 2.0 5.0 0.00 0.00 0.00 62 1027.8
20181118135903 39 332 2.0 5.0 0.00 0.00 0.00 62 1027.7
20181118135403 39 326 1.0 3.0 0.00 0.00 0.00 63 1027.6
20181118134903 39 324 1.0 3.0 0.00 0.00 0.00 63 1027.6
20181118134403 39 323 1.0 3.0 0.00 0.00 0.00 62 1027.5
20181118133903 39 323 1.0 3.0 0.00 0.00 0.00 63 1027.5
20181118133403 39 323 0.0 2.0 0.00 0.00 0.00 62 1027.5
20181118132903 39 323 1.0 3.0 0.00 0.00 0.00 64 1027.6
20181118132403 39 323 0.0 1.0 0.00 0.00 0.00 65 1027.4
20181118131904 39 323 0.0 1.0 0.00 0.00 0.00 65 1027.4
20181118131403 39 323 0.0 2.0 0.00 0.00 0.00 65 1027.4
20181118130903 38 323 0.0 0.0 0.00 0.00 0.00 65 1027.4
20181118130403 38 323 0.0 0.0 0.00 0.00 0.00 66 1027.3
20181118125903 38 323 0.0 0.0 0.00 0.00 0.00 66 1027.2
20181118125403 38 323 0.0 0.0 0.00 0.00 0.00 66 1027.1
20181118124903 38 323 0.0 0.0 0.00 0.00 0.00 66 1027.1
20181118124403 38 323 0.0 0.0 0.00 0.00 0.00 67 1027.1
20181118123903 38 323 0.0 0.0 0.00 0.00 0.00 67 1027.0
20181118123405 37 323 0.0 0.0 0.00 0.00 0.00 67 1027.0
20181118122903 37 323 0.0 1.0 0.00 0.00 0.00 67 1027.1
20181118122403 37 323 0.0 1.0 0.00 0.00 0.00 67 1027.1
20181118121903 37 323 0.0 1.0 0.00 0.00 0.00 67 1027.0
20181118121403 37 323 0.0 3.0 0.00 0.00 0.00 67 1026.9
20181118120904 37 323 0.0 0.0 0.00 0.00 0.00 67 1026.9
20181118120404 37 323 0.0 0.0 0.00 0.00 0.00 66 1026.9
20181118115903 37 323 0.0 0.0 0.00 0.00 0.00 67 1026.9
20181118115403 37 323 0.0 2.0 0.00 0.00 0.00 67 1026.8
20181118114904 37 323 0.0 2.0 0.00 0.00 0.00 67 1026.7
20181118114404 37 323 1.0 3.0 0.00 0.00 0.00 67 1026.7
20181118113903 37 323 1.0 3.0 0.00 0.00 0.00 67 1026.7
20181118113404 37 323 1.0 3.0 0.00 0.00 0.00 67 1026.7
20181118112904 37 323 1.0 3.0 0.00 0.00 0.00 68 1026.6
20181118112404 37 323 0.0 5.0 0.00 0.00 0.00 68 1026.6
20181118111903 37 323 1.0 3.0 0.00 0.00 0.00 68 1026.6
20181118111403 37 323 3.0 6.0 0.00 0.00 0.00 68 1026.6
20181118110903 37 327 2.0 3.0 0.00 0.00 0.00 68 1026.6
20181118110404 37 326 0.0 3.0 0.00 0.00 0.00 68 1026.6
20181118105903 37 327 1.0 3.0 0.00 0.00 0.00 68 1026.6
20181118105403 37 326 1.0 3.0 0.00 0.00 0.00 67 1026.6
20181118104904 37 328 1.0 3.0 0.00 0.00 0.00 68 1026.4
20181118104404 37 331 0.0 3.0 0.00 0.00 0.00 68 1026.4
20181118103904 37 331 0.0 1.0 0.00 0.00 0.00 68 1026.4
20181118103405 37 331 0.0 2.0 0.00 0.00 0.00 68 1026.0
20181118102904 37 331 2.0 3.0 0.00 0.00 0.00 68 1026.0
20181118102404 37 331 0.0 1.0 0.00 0.00 0.00 67 1026.0
20181118101904 38 331 0.0 0.0 0.00 0.00 0.00 67 1025.9
20181118101404 38 331 0.0 0.0 0.00 0.00 0.00 67 1026.0
20181118100904 38 331 0.0 0.0 0.00 0.00 0.00 66 1025.8
20181118100404 38 331 0.0 0.0 0.00 0.00 0.00 66 1025.7
20181118095904 38 331 0.0 0.0 0.00 0.00 0.00 66 1025.7
20181118095404 38 331 0.0 1.0 0.00 0.00 0.00 66 1025.6
20181118094904 38 331 0.0 3.0 0.00 0.00 0.00 66 1025.6
20181118094404 38 331 1.0 5.0 0.00 0.00 0.00 66 1025.6
20181118093904 38 335 0.0 5.0 0.00 0.00 0.00 66 1025.6
20181118093404 38 342 0.0 8.0 0.00 0.00 0.00 66 1025.5
20181118092904 38 307 0.0 1.0 0.00 0.00 0.00 66 1025.5
20181118092405 38 307 1.0 3.0 0.00 0.00 0.00 66 1025.5
20181118091405 38 306 1.0 3.0 0.00 0.00 0.00 66 1025.4
20181118090904 38 306 0.0 2.0 0.00 0.00 0.00 66 1025.4
20181118090404 38 306 0.0 3.0 0.00 0.00 0.00 66 1025.4
20181118085904 38 305 0.0 2.0 0.00 0.00 0.00 66 1025.4
20181118085405 38 305 0.0 5.0 0.00 0.00 0.00 66 1025.4
20181118084905 38 303 2.0 9.0 0.00 0.00 0.00 67 1025.4
20181118084404 38 323 1.0 5.0 0.00 0.00 0.00 67 1025.4
20181118083904 38 311 3.0 8.0 0.00 0.00 0.00 67 1025.4
20181118083404 38 319 0.0 3.0 0.00 0.00 0.00 67 1025.3
20181118082904 38 319 2.0 8.0 0.00 0.00 0.00 67 1025.3
20181118082404 38 314 2.0 8.0 0.00 0.00 0.00 67 1025.2
20181118081904 38 334 1.0 3.0 0.00 0.00 0.00 67 1025.1
20181118081405 38 334 2.0 5.0 0.00 0.00 0.00 67 1025.1
20181118080904 38 355 3.0 8.0 0.00 0.00 0.00 67 1025.1
20181118080404 39 339 2.0 6.0 0.00 0.00 0.00 67 1025.1
20181118075905 39 331 2.0 3.0 0.00 0.00 0.00 67 1025.0
20181118075405 39 331 1.0 3.0 0.00 0.00 0.00 67 1025.0
20181118074905 39 331 2.0 5.0 0.00 0.00 0.00 67 1025.0
20181118074404 39 308 3.0 9.0 0.00 0.00 0.00 67 1025.1
20181118073905 39 320 2.0 5.0 0.00 0.00 0.00 67 1025.2
20181118073405 39 321 4.0 9.0 0.00 0.00 0.00 68 1025.2
20181118072904 39 314 3.0 9.0 0.00 0.00 0.00 68 1025.1
20181118072405 39 344 1.0 9.0 0.00 0.00 0.00 70 1025.0
20181118071904 39 345 0.0 2.0 0.00 0.00 0.00 70 1025.0
20181118071404 39 345 1.0 5.0 0.00 0.00 0.00 69 1025.0
20181118070905 39 19 2.0 5.0 0.00 0.00 0.00 70 1025.0
20181118070405 39 302 3.0 8.0 0.00 0.00 0.00 71 1024.9
20181118065905 39 324 3.0 5.0 0.00 0.00 0.00 71 1024.7
20181118065404 39 323 1.0 6.0 0.00 0.00 0.00 71 1024.8
20181118064904 39 325 2.0 6.0 0.00 0.00 0.00 71 1024.8
20181118064405 39 342 1.0 3.0 0.00 0.00 0.00 70 1024.8
20181118063905 40 343 1.0 5.0 0.00 0.00 0.00 70 1024.7
20181118063405 40 325 1.0 8.0 0.00 0.00 0.00 69 1024.6
20181118062905 40 304 5.0 12.0 0.00 0.00 0.00 70 1024.4
20181118062405 40 314 3.0 9.0 0.00 0.00 0.00 70 1024.4
20181118061905 40 322 4.0 8.0 0.00 0.00 0.00 70 1024.5
20181118061405 40 26 2.0 6.0 0.00 0.00 0.00 69 1024.4
20181118060906 40 312 5.0 10.0 0.00 0.00 0.00 69 1024.3
20181118060405 40 318 3.0 8.0 0.00 0.00 0.00 70 1024.3
20181118055831 40 340 2.0 3.0 0.00 0.00 0.00 71 1024.4
20181118055332 40 340 0.0 5.0 0.00 0.00 0.00 71 1024.3
20181118054831 40 325 3.0 6.0 0.00 0.00 0.00 72 1024.5
20181118054331 40 312 1.0 5.0 0.00 0.00 0.00 72 1024.5
20181118053831 40 312 1.0 5.0 0.00 0.00 0.00 73 1024.5
20181118053331 40 315 0.0 3.0 0.00 0.00 0.00 73 1024.5
20181118052832 40 318 3.0 6.0 0.00 0.00 0.00 74 1024.4
20181118052332 40 319 0.0 3.0 0.00 0.00 0.00 74 1024.6
20181118051831 41 319 0.0 2.0 0.00 0.00 0.00 74 1024.5
20181118051331 41 319 0.0 0.0 0.00 0.00 0.00 75 1024.5
20181118050831 41 319 0.0 2.0 0.00 0.00 0.00 75 1024.8
20181118050332 41 319 1.0 3.0 0.00 0.00 0.00 74 1024.4
20181118045831 41 319 0.0 3.0 0.00 0.00 0.00 74 1024.3
20181118045331 41 319 1.0 3.0 0.00 0.00 0.00 73 1024.3
20181118044832 41 319 1.0 5.0 0.00 0.00 0.00 73 1024.4
20181118044331 41 319 2.0 5.0 0.00 0.00 0.00 73 1024.3
20181118043832 41 320 1.0 5.0 0.00 0.00 0.00 72 1024.3
20181118043331 41 321 1.0 6.0 0.00 0.00 0.00 72 1024.2
20181118042832 41 284 2.0 6.0 0.00 0.00 0.00 73 1024.2
20181118042331 41 261 1.0 6.0 0.00 0.00 0.00 73 1024.1
20181118041832 41 247 3.0 13.0 0.00 0.00 0.00 73 1024.1
20181118041331 41 244 4.0 10.0 0.00 0.00 0.00 74 1023.9
20181118040831 41 253 1.0 3.0 0.00 0.00 0.00 74 1023.7
20181118040333 41 254 1.0 7.0 0.00 0.00 0.00 74 1023.7
20181118035832 41 259 1.0 7.0 0.00 0.00 0.00 74 1023.6
20181118035332 41 265 1.0 3.0 0.00 0.00 0.00 74 1023.5
20181118034832 41 265 1.0 7.0 0.00 0.00 0.00 74 1023.5
20181118034332 41 270 1.0 7.0 0.00 0.00 0.00 74 1023.6
20181118033832 41 272 1.0 3.0 0.00 0.00 0.00 74 1023.6
20181118033331 40 272 1.0 3.0 0.00 0.00 0.00 74 1023.6
20181118032831 40 275 2.0 3.0 0.00 0.00 0.00 74 1023.5
20181118032332 40 280 2.0 6.0 0.00 0.00 0.00 73 1023.4
20181118031833 41 309 1.0 3.0 0.00 0.00 0.00 73 1023.4
20181118031332 40 251 1.0 7.0 0.00 0.00 0.00 73 1023.4
20181118030832 41 268 0.0 6.0 0.00 0.00 0.00 72 1023.4
20181118030332 41 270 1.0 3.0 0.00 0.00 0.00 72 1023.4
20181118025832 41 252 2.0 7.0 0.00 0.00 0.00 72 1023.4
20181118025332 41 252 3.0 7.0 0.00 0.00 0.00 72 1023.4
20181118024833 41 259 3.0 7.0 0.00 0.00 0.00 71 1023.4
20181118024332 41 254 2.0 5.0 0.00 0.00 0.00 71 1023.5
20181118023832 41 250 2.0 7.0 0.00 0.00 0.00 71 1023.4
20181118023332 42 246 2.0 8.0 0.00 0.00 0.00 70 1023.4
20181118022832 42 247 3.0 6.0 0.00 0.00 0.00 70 1023.4
20181118022332 42 260 3.0 8.0 0.00 0.00 0.00 70 1023.3
20181118021833 42 249 3.0 7.0 0.00 0.00 0.00 70 1023.4
20181118021332 42 256 2.0 7.0 0.00 0.00 0.00 70 1023.2
20181118020832 42 235 2.0 8.0 0.00 0.00 0.00 70 1023.1
20181118020332 42 260 2.0 8.0 0.00 0.00 0.00 70 1023.1
20181118015832 42 258 1.0 7.0 0.00 0.00 0.00 70 1023.0
20181118015333 42 259 3.0 7.0 0.00 0.00 0.00 69 1022.9
20181118014832 42 241 3.0 8.0 0.00 0.00 0.00 69 1022.9
20181118014332 42 259 3.0 7.0 0.00 0.00 0.00 69 1022.9
20181118013832 42 271 3.0 10.0 0.00 0.00 0.00 69 1022.8
20181118013332 42 246 4.0 10.0 0.00 0.00 0.00 69 1022.8
20181118012832 42 252 3.0 12.0 0.00 0.00 0.00 69 1022.8
20181118012332 42 233 3.0 8.0 0.00 0.00 0.00 69 1022.7
20181118011832 42 250 2.0 6.0 0.00 0.00 0.00 69 1022.7
20181118011333 42 248 3.0 8.0 0.00 0.00 0.00 69 1022.6
20181118010832 42 251 4.0 8.0 0.00 0.00 0.00 69 1022.6
20181118010333 42 266 3.0 8.0 0.00 0.00 0.00 69 1022.4
20181118005832 42 262 3.0 8.0 0.00 0.00 0.00 69 1022.3
20181118005332 42 263 2.0 8.0 0.00 0.00 0.00 69 1022.2
20181118004832 42 255 3.0 10.0 0.00 0.00 0.00 69 1022.2
20181118004332 42 238 5.0 12.0 0.00 0.00 0.00 69 1022.3
20181118003832 42 254 5.0 12.0 0.00 0.00 0.00 69 1022.4
20181118003332 42 229 2.0 12.0 0.00 0.00 0.00 69 1022.4
20181118002833 42 238 6.0 13.0 0.00 0.00 0.00 69 1022.3
20181118002332 42 241 4.0 8.0 0.00 0.00 0.00 69 1022.2
20181118001833 42 249 5.0 12.0 0.00 0.00 0.00 69 1022.2
20181118001333 42 249 6.0 10.0 0.00 0.00 0.00 69 1022.2
20181118000835 42 270 5.0 10.0 0.00 0.00 0.00 69 1022.2
20181118000332 42 248 5.0 12.0 0.00 0.00 0.00 69 1022.1
20181117235833 42 232 6.0 12.0 0.00 0.00 0.00 69 1022.2
20181117235333 42 255 3.0 12.0 0.00 0.00 0.00 69 1022.2
20181117234832 42 248 4.0 8.0 0.00 0.00 0.00 69 1022.1
20181117234333 43 245 4.0 12.0 0.00 0.00 0.00 69 1022.2
20181117233832 43 255 5.0 9.0 0.00 0.00 0.00 69 1022.1
20181117233332 43 253 6.0 13.0 0.00 0.00 0.00 68 1022.0
20181117232833 43 248 6.0 10.0 0.00 0.00 0.00 69 1022.0
20181117232333 43 248 5.0 10.0 0.00 0.00 0.00 68 1022.0
20181117231832 43 254 7.0 10.0 0.00 0.00 0.00 68 1022.0
20181117231333 43 251 6.0 10.0 0.00 0.00 0.00 69 1022.0
20181117230833 43 250 5.0 8.0 0.00 0.00 0.00 69 1022.0
20181117230333 43 258 5.0 8.0 0.00 0.00 0.00 69 1022.0
20181117225833 43 251 4.0 9.0 0.00 0.00 0.00 68 1021.8
20181117225333 43 246 5.0 9.0 0.00 0.00 0.00 68 1021.7
20181117224833 43 255 6.0 9.0 0.00 0.00 0.00 68 1021.7
20181117224333 43 237 3.0 8.0 0.00 0.00 0.00 68 1021.7
20181117223833 43 265 5.0 10.0 0.00 0.00 0.00 68 1021.7